Simultaneous Nadir Overpasses (SNOs) Predictions

Prediction of SNOs between AQUA and GOES-15 Satellite Orbit:

Table of predicted SNOs for the next 14.0 days since TLE Epoch: 8/4/2018
Index Date Time (AQUA) AQUA Lat,Lon GOES-15 Lat,Lon Distance(km) Time Diff (sec)
1 08/04/2018 10:39:05 -0.22,-135.84 -0.29,-135.39 50.91 80
2 08/06/2018 10:26:52 -0.83,-132.88 -0.29,-135.35 281.62 80
3 08/06/2018 22:48:15 -0.29,-138.06 0.31,-135.38 306.47 80
4 08/08/2018 22:36:03 0.39,-135.11 0.32,-135.33 25.05 80
5 08/10/2018 22:23:50 1.01,-132.15 0.32,-135.28 355.74 80
6 08/11/2018 10:45:06 0.08,-137.31 -0.33,-135.23 236.02 80
7 08/13/2018 10:32:53 -0.54,-134.35 -0.33,-135.18 94.53 80
8 08/13/2018 22:54:16 -0.57,-139.54 0.35,-135.19 494.46 80
9 08/15/2018 10:20:39 -1.10,-131.38 -0.33,-135.12 424.80 80
10 08/15/2018 22:42:03 0.05,-136.58 0.35,-135.13 164.13 80
11 08/17/2018 22:29:50 0.68,-133.62 0.35,-135.07 165.68 80




NCC Satellite Simultaneous Nadir Overpasses (SNOs) Prediction Service
